{"data":{"norad_id":66358,"intl_designator":"2025-254L","name":"STARLINK-35807","alt_names":[],"object_type":"PAYLOAD","status":"ACTIVE","operator":null,"country":"US","launch_date":"2025-11-06","launch_site_code":"AFWTR","launch_vehicle":null,"mission":null,"orbit_class":"UNKNOWN","rcs_meters":null,"size_class":null,"mass_kg":null,"dimensions":null,"purposes":["comms"],"wikipedia_slug":null,"has_3d_model":false,"image_url":null,"decayed_at":null,"tle_current":{"epoch":"2026-09-20T21:44:13.266240Z","epoch_age_seconds":58387,"freshness":"FRESH","line1":"1 66358U 25254L   26263.90570910  .00016172  00000+0  53152-3 0  9991","line2":"2 66358  53.1572  44.3109 0000755  95.9235 264.1853 15.31715295 48880","mean_motion":15.31715295,"eccentricity":7.55e-5,"inclination_deg":53.1572,"raan_deg":44.3109,"arg_perigee_deg":95.9235,"mean_anomaly_deg":264.1853,"bstar":0.00053152,"rev_number":4888,"period_min":94.012249188907,"perigee_km":470.17731523508,"apogee_km":471.21148877678,"semimajor_km":6848.8314020059,"source":"CELESTRAK","updated_at":"2026-09-21T09:00:35.881146Z"}}}